Tracking 30995 objects as of 5-Jul-2025
HD Live streaming from Space Station
objects crossing your sky now

AMC-9 (GE-12)

Track AMC-9 (GE-12) now!
AMC-9 (GE-12) is classified as:


NORAD ID: 27820
Int'l Code: 2003-024A
Perigee: 36,070.3 km
Apogee: 36,219.2 km
Inclination: 7.1 °
Period: 1,454.1 minutes
Semi major axis: 42515 km
RCS: 43.0775 m2 (large)
Launch date: June 6, 2003
Source: SOCIETE EUROPEENNE DES SATELLITES (SES)
Launch site: TYURATAM MISSILE AND SPACE COMPLEX (TTMTR)

Television programmers, government agencies and enterprise networks; 24 Ku-band; CONUS and Mexico.
Your satellite tracking list
FOX-1CLIFF (AO-95)
Track 1 satellite(s)




NASA's NSSDC Master Catalog

Two Line Element Set (TLE):
1 27820U 03024A   25186.48264220 -.00000182  00000-0  00000-0 0  9990
2 27820   7.0511  69.6556 0017509 349.7632 343.7172  0.99032697 80558
Source of the keplerian elements: AFSPC